Location: Béaulencourt
(50.0796°N, 2.8795°E)
Time: 12:41:11
(UTC+00:00)

Dummy Sat-02 - Pass Details

Date: 22 April 2026
Orbit: 472 x 483 km, 86.3° (Epoch: 12 May)

Event Time Altitude Azimuth Distance (km) Brightness Sun altitude
Exits shadow 21:33:19 - 230° (SW) 2,559 8.2 -21.0°
Rises 21:33:24 0° 230° (SW) 2,529 8.2 -21.0°
Reaches altitude 10° 21:36:26 10° 259° (W) 1,654 7.5 -21.3°
Maximum altitude 21:38:13 13° 289° (WNW) 1,469 7.7 -21.4°
Drops below altitude 10° 21:40:00 10° 318° (NW) 1,658 8.4 -21.6°
Sets 21:43:03 0° 347° (NNW) 2,541 9.4 -21.8°
